DW3588 Weather Reports


Display with metric or nautical units.
time (UTC)temp
F
wind
direction
speed
MPH
gust
MPH
rain 1hr
in
rain 24hr
in
rain mn
in
humidity
%
barometer
mb
20260831222636 78 227 8.0 13.0 0.00 0.00 0.00 42 1011.0
20260831222403 79 225 9.0 15.0 0.00 0.00 0.00 42 1011.0
20260831221627 79 260 8.0 15.0 0.00 0.00 0.00 42 1011.1
20260831221126 79 238 7.0 14.0 0.00 0.00 0.00 42 1011.1
20260831220626 80 253 7.0 12.0 0.00 0.00 0.00 41 1011.2
20260831220125 80 219 6.0 12.0 0.00 0.00 0.00 41 1011.3
20260831215623 79 300 5.0 12.0 0.00 0.00 0.00 42 1011.3
20260831215347 79 301 5.0 10.0 0.00 0.00 0.00 41 1011.3
20260831214620 79 281 6.0 12.0 0.00 0.00 0.00 42 1011.4
20260831214118 79 320 6.0 13.0 0.00 0.00 0.00 41 1011.5
20260831213841 79 274 7.0 13.0 0.00 0.00 0.00 41 1011.5
20260831213119 79 242 7.0 12.0 0.00 0.00 0.00 42 1011.6
20260831212619 78 276 7.0 14.0 0.00 0.00 0.00 43 1011.7
20260831212340 79 300 7.0 14.0 0.00 0.00 0.00 42 1011.7
20260831211617 79 254 7.0 13.0 0.00 0.00 0.00 42 1011.7
20260831211116 80 224 7.0 12.0 0.00 0.00 0.00 42 1011.8
20260831210615 79 274 7.0 12.0 0.00 0.00 0.00 42 1011.8
20260831210115 80 246 6.0 12.0 0.00 0.00 0.00 41 1011.8
20260831205833 80 233 5.0 12.0 0.00 0.00 0.00 41 1011.8
20260831205113 81 244 5.0 12.0 0.00 0.00 0.00 40 1011.8
20260831204612 81 287 6.0 12.0 0.00 0.00 0.00 39 1011.8
20260831204112 81 238 5.0 10.0 0.00 0.00 0.00 40 1011.9
20260831203602 80 215 6.0 11.0 0.00 0.00 0.00 42 1011.9
20260831203101 79 267 7.0 15.0 0.00 0.00 0.00 43 1011.9
20260831202558 80 241 6.0 15.0 0.00 0.00 0.00 42 1011.9
20260831202059 80 274 5.0 10.0 0.00 0.00 0.00 41 1012.0
20260831201824 80 187 4.0 11.0 0.00 0.00 0.00 41 1011.9
20260831201056 80 294 4.0 11.0 0.00 0.00 0.00 40 1011.8
20260831200555 81 215 5.0 12.0 0.00 0.00 0.00 40 1011.9
20260831200054 80 232 5.0 12.0 0.00 0.00 0.00 41 1011.8
20260831195813 78 196 3.0 11.0 0.00 0.00 0.00 43 1011.9
20260831195053 78 300 2.0 11.0 0.00 0.00 0.00 44 1011.8
20260831194547 76 101 1.0 4.0 0.00 0.00 0.00 45 1011.9
20260831194048 78 264 2.0 6.0 0.00 0.00 0.00 45 1012.0
20260831193546 78 290 2.0 6.0 0.00 0.00 0.00 44 1012.1
20260831193045 77 218 1.0 6.0 0.00 0.00 0.00 47 1012.2
20260831192544 76 137 2.0 6.0 0.00 0.00 0.00 47 1012.2
20260831192044 76 220 3.0 6.0 0.00 0.00 0.00 47 1012.3
20260831191557 76 182 3.0 9.0 0.00 0.00 0.00 47 1012.3
20260831191257 76 252 3.0 9.0 0.00 0.00 0.00 46 1012.4
20260831190539 76 193 3.0 8.0 0.00 0.00 0.00 48 1012.3
20260831190037 76 225 3.0 8.0 0.00 0.00 0.00 46 1012.4
20260831185537 75 223 3.0 8.0 0.00 0.00 0.00 48 1012.4
20260831185034 76 229 3.0 7.0 0.00 0.00 0.00 47 1012.5
20260831184534 74 159 2.0 7.0 0.00 0.00 0.00 49 1012.5
20260831184033 74 182 3.0 8.0 0.00 0.00 0.00 50 1012.5
20260831183531 75 250 3.0 8.0 0.00 0.00 0.00 48 1012.5
20260831183031 75 200 2.0 7.0 0.00 0.00 0.00 48 1012.5
20260831182530 74 90 2.0 6.0 0.00 0.00 0.00 49 1012.5
20260831182027 74 236 2.0 8.0 0.00 0.00 0.00 49 1012.5
20260831181524 74 228 2.0 8.0 0.00 0.00 0.00 51 1012.5
20260831181014 71 205 1.0 3.0 0.00 0.00 0.00 55 1012.5
20260831180512 70 13 2.0 3.0 0.00 0.00 0.00 57 1012.5
20260831180453 70 10 1.0 4.0 0.00 0.00 0.00 60 1012.4
20260831175511 70 79 1.0 4.0 0.00 0.00 0.00 58 1012.4
20260831175008 69 82 2.0 6.0 0.00 0.00 0.00 60 1012.4
20260831174955 69 82 1.0 6.0 0.00 0.00 0.00 61 1012.4
20260831174008 68 103 1.0 4.0 0.00 0.00 0.00 63 1012.4
20260831173726 67 113 2.0 4.0 0.00 0.00 0.00 64 1012.4
20260831173006 67 111 2.0 4.0 0.00 0.00 0.00 64 1012.3
20260831172504 66 70 2.0 5.0 0.00 0.00 0.00 65 1012.4
20260831172004 66 61 2.0 5.0 0.00 0.00 0.00 65 1012.4
20260831171505 65 92 2.0 5.0 0.00 0.00 0.00 65 1012.3
20260831171221 65 61 1.0 4.0 0.00 0.00 0.00 65 1012.2
20260831170455 65 93 1.0 4.0 0.00 0.00 0.00 66 1012.2
20260831165954 65 96 2.0 4.0 0.00 0.00 0.00 68 1012.2
20260831165454 64 89 2.0 4.0 0.00 0.00 0.00 71 1012.1
20260831164945 63 63 2.0 4.0 0.00 0.00 0.00 71 1012.0
20260831164711 62 67 2.0 4.0 0.00 0.00 0.00 73 1012.1
20260831164204 62 69 2.0 5.0 0.00 0.00 0.00 74 1012.0
20260831163709 61 71 2.0 5.0 0.00 0.00 0.00 75 1011.9
20260831162941 61 65 2.0 5.0 0.00 0.00 0.00 76 1011.9
20260831162440 61 66 2.0 5.0 0.00 0.00 0.00 77 1011.9
20260831162159 60 67 1.0 4.0 0.00 0.00 0.00 78 1011.8
20260831161440 60 69 1.0 4.0 0.00 0.00 0.00 79 1011.8
20260831160937 60 71 1.0 4.0 0.00 0.00 0.00 80 1011.8
20260831160436 59 65 1.0 4.0 0.00 0.00 0.00 80 1011.7
20260831155935 59 35 0.0 3.0 0.00 0.00 0.00 81 1011.7
20260831155436 59 32 0.0 2.0 0.00 0.00 0.00 80 1011.7
20260831155152 58 32 0.0 1.0 0.00 0.00 0.00 81 1011.7
20260831154436 58 32 0.0 1.0 0.00 0.00 0.00 81 1011.7
20260831154200 58 32 0.0 1.0 0.00 0.00 0.00 81 1011.6
20260831153432 58 32 0.0 1.0 0.00 0.00 0.00 82 1011.7
20260831152931 58 31 0.0 2.0 0.00 0.00 0.00 82 1011.6
20260831152430 58 30 0.0 2.0 0.00 0.00 0.00 82 1011.7
20260831151931 57 30 0.0 1.0 0.00 0.00 0.00 83 1011.7
20260831151420 57 30 0.0 1.0 0.00 0.00 0.00 83 1011.7
20260831150918 57 30 0.0 0.0 0.00 0.00 0.00 83 1011.7
20260831150410 57 30 0.0 0.0 0.00 0.00 0.00 83 1011.5
20260831145907 57 30 0.0 1.0 0.00 0.00 0.00 83 1011.6
20260831145406 57 30 0.0 1.0 0.00 0.00 0.00 83 1011.5
20260831144908 57 30 0.0 1.0 0.00 0.00 0.00 83 1011.5
20260831144407 57 30 0.0 1.0 0.00 0.00 0.00 82 1011.5
20260831144124 57 30 0.0 0.0 0.00 0.00 0.00 82 1011.5
20260831143400 57 30 0.0 0.0 0.00 0.00 0.00 82 1011.4
20260831142900 57 30 0.0 0.0 0.00 0.00 0.00 82 1011.4
20260831142358 57 30 0.0 1.0 0.00 0.00 0.00 82 1011.3
20260831142121 57 30 0.0 1.0 0.00 0.00 0.00 82 1011.2
20260831141358 57 30 0.0 1.0 0.00 0.00 0.00 82 1011.2
20260831140852 57 30 0.0 0.0 0.00 0.00 0.00 83 1011.1
20260831140350 57 30 0.0 1.0 0.00 0.00 0.00 83 1011.0
20260831140338 57 30 0.0 1.0 0.00 0.00 0.00 83 1011.0
20260831135347 57 30 0.0 0.0 0.00 0.00 0.00 83 1010.9
20260831134845 57 30 0.0 1.0 0.00 0.00 0.00 83 1010.8
20260831134343 57 30 0.0 1.0 0.00 0.00 0.00 83 1010.7
20260831133841 56 30 0.0 0.0 0.00 0.00 0.00 83 1010.7
20260831133340 56 30 0.0 0.0 0.00 0.00 0.00 83 1010.6
20260831132837 56 30 0.0 0.0 0.00 0.00 0.00 83 1010.6
20260831132338 57 30 0.0 0.0 0.00 0.00 0.00 83 1010.6
20260831131836 57 30 0.0 0.0 0.00 0.00 0.00 83 1010.6
20260831131549 57 30 0.0 0.0 0.00 0.00 0.00 83 1010.5
20260831131055 57 30 0.0 0.0 0.00 0.00 0.00 83 1010.6
20260831130329 57 30 0.0 2.0 0.00 0.00 0.00 83 1010.5
20260831130055 57 30 0.0 3.0 0.00 0.00 0.00 83 1010.4
20260831125325 58 30 0.0 3.0 0.00 0.00 0.00 82 1010.3
20260831124824 58 302 0.0 0.0 0.00 0.00 0.00 82 1010.4
20260831124547 58 303 0.0 1.0 0.00 0.00 0.00 81 1010.3
20260831123816 58 303 0.0 2.0 0.00 0.00 0.00 80 1010.3
20260831123314 58 303 1.0 3.0 0.00 0.00 0.00 79 1010.2
20260831122813 58 303 1.0 5.0 0.00 0.00 0.00 78 1010.2
20260831122536 58 304 1.0 5.0 0.00 0.00 0.00 80 1010.2
20260831121810 58 293 0.0 4.0 0.00 0.00 0.00 82 1010.2
20260831121308 58 195 0.0 1.0 0.00 0.00 0.00 82 1010.2
20260831120806 58 195 0.0 0.0 0.00 0.00 0.00 82 1010.1
20260831120304 58 195 0.0 0.0 0.00 0.00 0.00 82 1010.1
20260831120257 58 195 0.0 0.0 0.00 0.00 0.00 82 1010.1
20260831115306 58 195 0.0 1.0 0.00 0.00 0.00 81 1010.1
20260831115248 58 195 0.0 1.0 0.00 0.00 0.00 81 1010.0
20260831114526 58 196 0.0 1.0 0.00 0.00 0.00 81 1010.0
20260831113800 58 223 0.0 1.0 0.00 0.00 0.00 80 1010.0
20260831113257 58 223 0.0 1.0 0.00 0.00 0.00 80 1009.9
20260831112758 59 223 0.0 1.0 0.00 0.00 0.00 80 1009.9
20260831112256 59 223 0.0 1.0 0.00 0.00 0.00 79 1009.9
20260831111753 59 223 0.0 0.0 0.00 0.00 0.00 79 1009.8
20260831111254 59 223 0.0 0.0 0.00 0.00 0.00 78 1009.8
20260831110752 59 223 0.0 0.0 0.00 0.00 0.00 78 1009.8
20260831110250 59 223 0.0 0.0 0.00 0.00 0.00 77 1009.8
20260831105747 60 223 0.0 1.0 0.00 0.00 0.00 77 1009.8
20260831105242 60 223 0.0 1.0 0.00 0.00 0.00 76 1009.8
20260831104739 60 223 0.0 1.0 0.00 0.00 0.00 75 1009.8
20260831104454 60 222 0.0 0.0 0.00 0.00 0.00 74 1009.8
20260831103738 60 222 0.0 0.0 0.00 0.00 0.00 73 1009.8
20260831103238 60 222 0.0 0.0 0.00 0.00 0.00 72 1009.8
20260831102954 61 222 0.0 0.0 0.00 0.00 0.00 70 1009.8
20260831102234 61 222 0.0 2.0 0.00 0.00 0.00 69 1009.8
20260831101731 61 222 0.0 2.0 0.00 0.00 0.00 69 1009.8
20260831101231 61 223 0.0 0.0 0.00 0.00 0.00 69 1009.7
20260831100729 61 223 0.0 0.0 0.00 0.00 0.00 67 1009.6
20260831100224 61 223 0.0 0.0 0.00 0.00 0.00 66 1009.7
20260831095722 61 223 0.0 0.0 0.00 0.00 0.00 65 1009.7
20260831095219 62 223 0.0 0.0 0.00 0.00 0.00 65 1009.7
20260831094718 62 223 0.0 0.0 0.00 0.00 0.00 64 1009.6
20260831094441 62 223 0.0 1.0 0.00 0.00 0.00 64 1009.6
20260831093719 62 223 0.0 1.0 0.00 0.00 0.00 65 1009.6
20260831093214 62 223 0.0 0.0 0.00 0.00 0.00 65 1009.5
20260831092717 62 223 0.0 0.0 0.00 0.00 0.00 65 1009.6
20260831092215 62 223 0.0 0.0 0.00 0.00 0.00 64 1009.6
20260831091936 62 223 0.0 0.0 0.00 0.00 0.00 63 1009.6
20260831091211 62 223 0.0 0.0 0.00 0.00 0.00 63 1009.7
20260831090707 62 223 0.0 0.0 0.00 0.00 0.00 63 1009.6
20260831090208 62 223 0.0 0.0 0.00 0.00 0.00 62 1009.6
20260831085708 63 223 0.0 0.0 0.00 0.00 0.00 61 1009.6
20260831085207 63 223 0.0 0.0 0.00 0.00 0.00 60 1009.6
20260831084705 64 223 0.0 0.0 0.00 0.00 0.00 60 1009.6
20260831084206 64 223 0.0 0.0 0.00 0.00 0.00 59 1009.6
20260831083703 64 223 0.0 0.0 0.00 0.00 0.00 58 1009.7
20260831083200 64 223 0.0 1.0 0.00 0.00 0.00 58 1009.6
20260831082700 64 223 0.0 2.0 0.00 0.00 0.00 59 1009.6
20260831082157 64 223 0.0 2.0 0.00 0.00 0.00 57 1009.6
20260831081656 64 223 0.0 0.0 0.00 0.00 0.00 56 1009.7
20260831081154 64 223 0.0 1.0 0.00 0.00 0.00 56 1009.7
20260831080651 64 223 0.0 2.0 0.00 0.00 0.00 56 1009.7
20260831080151 64 223 0.0 2.0 0.00 0.00 0.00 57 1009.7
20260831075649 64 223 0.0 0.0 0.00 0.00 0.00 55 1009.8
20260831075150 64 223 0.0 2.0 0.00 0.00 0.00 55 1009.8
20260831074645 64 223 0.0 2.0 0.00 0.00 0.00 55 1009.8
20260831074143 64 223 0.0 0.0 0.00 0.00 0.00 54 1009.8
20260831073645 65 223 0.0 0.0 0.00 0.00 0.00 53 1009.7
20260831073143 65 223 0.0 0.0 0.00 0.00 0.00 53 1009.8
20260831072643 65 223 0.0 0.0 0.00 0.00 0.00 53 1009.7
20260831072143 66 223 0.0 2.0 0.00 0.00 0.00 52 1009.7
20260831071640 66 223 0.0 2.0 0.00 0.00 0.00 52 1009.7
20260831071138 66 223 0.0 0.0 0.00 0.00 0.00 50 1009.7
20260831070637 67 223 0.0 3.0 0.00 0.00 0.00 50 1009.7
20260831070406 67 223 0.0 3.0 0.00 0.00 0.00 50 1009.7
20260831065635 67 223 0.0 1.0 0.00 0.00 0.00 50 1009.7
20260831065134 67 223 0.0 3.0 0.00 0.00 0.00 50 1009.8
20260831064631 68 223 1.0 3.0 0.00 0.00 0.00 49 1009.8
20260831064130 68 223 0.0 3.0 0.00 0.00 0.00 49 1009.8
20260831063630 67 224 0.0 2.0 0.00 0.00 0.00 49 1009.8
20260831063131 67 224 0.0 0.0 0.00 0.00 0.00 49 1009.9
20260831062614 68 224 0.0 2.0 0.00 0.00 0.00 48 1009.9
20260831062113 68 224 0.0 2.0 0.00 0.00 0.00 47 1009.9
20260831061612 68 225 0.0 2.0 0.00 0.00 0.00 48 1009.9
20260831061111 69 225 0.0 2.0 0.00 0.00 0.00 48 1010.0
20260831060609 69 225 1.0 2.0 0.00 0.00 0.00 48 1010.0
20260831060107 69 225 1.0 4.0 0.00 0.00 0.00 48 1010.0
20260831055607 69 226 1.0 4.0 0.00 0.00 0.00 48 1010.0
20260831055105 69 251 1.0 3.0 0.00 0.00 0.00 48 1010.1
20260831054824 69 257 0.0 3.0 0.00 0.00 0.00 47 1010.1
20260831054059 69 259 0.0 2.0 0.00 0.00 0.00 46 1010.1
20260831053555 69 259 0.0 2.0 0.00 0.00 0.00 45 1010.1
20260831053053 69 261 0.0 1.0 0.00 0.00 0.00 44 1010.1
20260831053024 69 261 0.0 0.0 0.00 0.00 0.00 44 1010.2
20260831052640 69 261 0.0 0.0 0.00 0.00 0.00 44 1010.1
20260831051542 69 261 0.0 0.0 0.00 0.00 0.00 44 1010.2
20260831051042 69 261 0.0 1.0 0.00 0.00 0.00 44 1010.2
20260831050539 69 261 0.0 1.0 0.00 0.00 0.00 43 1010.2
20260831050259 69 261 0.0 1.0 0.00 0.00 0.00 43 1010.3
20260831045537 70 261 0.0 2.0 0.00 0.00 0.00 43 1010.3
20260831045036 70 261 0.0 2.0 0.00 0.00 0.00 43 1010.3
20260831044533 71 263 0.0 2.0 0.00 0.00 0.00 43 1010.3
20260831044031 71 264 1.0 4.0 0.00 0.00 0.00 41 1010.2
20260831043530 71 265 2.0 4.0 0.00 0.00 0.00 41 1010.2
20260831043249 71 298 3.0 7.0 0.00 0.00 0.00 41 1010.1
20260831042528 72 308 3.0 7.0 0.00 0.00 0.00 41 1010.1
20260831042028 72 311 4.0 8.0 0.00 0.00 0.00 41 1010.0
20260831041527 72 290 4.0 8.0 0.00 0.00 0.00 41 1010.0
20260831041025 72 321 4.0 8.0 0.00 0.00 0.00 41 1010.0
20260831040519 72 313 4.0 8.0 0.00 0.00 0.00 41 1009.9
20260831040019 73 309 3.0 8.0 0.00 0.00 0.00 41 1009.9
20260831035514 73 302 4.0 8.0 0.00 0.00 0.00 40 1009.8
20260831035015 74 272 4.0 9.0 0.00 0.00 0.00 39 1009.9
20260831034517 74 306 4.0 10.0 0.00 0.00 0.00 40 1009.8
20260831034014 74 272 4.0 10.0 0.00 0.00 0.00 41 1009.8
20260831033958 74 267 4.0 9.0 0.00 0.00 0.00 40 1009.7
20260831033013 75 277 4.0 9.0 0.00 0.00 0.00 40 1009.7
20260831032513 75 321 4.0 9.0 0.00 0.00 0.00 40 1009.7
20260831032011 75 296 3.0 9.0 0.00 0.00 0.00 39 1009.6
20260831031510 76 319 3.0 9.0 0.00 0.00 0.00 39 1009.7
20260831031011 76 305 3.0 9.0 0.00 0.00 0.00 39 1009.5
20260831030509 76 285 4.0 9.0 0.00 0.00 0.00 38 1009.5
20260831030008 77 305 4.0 8.0 0.00 0.00 0.00 37 1009.4
20260831025506 77 317 4.0 8.0 0.00 0.00 0.00 36 1009.3
20260831025001 78 267 4.0 10.0 0.00 0.00 0.00 34 1009.3
20260831024723 78 300 4.0 10.0 0.00 0.00 0.00 33 1009.3
20260831024001 78 285 4.0 8.0 0.00 0.00 0.00 33 1009.3
20260831023459 78 273 6.0 14.0 0.00 0.00 0.00 33 1009.3
20260831022956 79 281 7.0 14.0 0.00 0.00 0.00 33 1009.3
20260831022456 79 279 6.0 13.0 0.00 0.00 0.00 33 1009.3
20260831021957 80 273 7.0 12.0 0.00 0.00 0.00 33 1009.2
20260831021457 80 265 7.0 13.0 0.00 0.00 0.00 32 1009.3
20260831021212 81 250 7.0 13.0 0.00 0.00 0.00 31 1009.3
20260831020456 81 261 7.0 13.0 0.00 0.00 0.00 31 1009.2
20260831015957 82 228 7.0 11.0 0.00 0.00 0.00 30 1009.2
20260831015457 83 264 6.0 12.0 0.00 0.00 0.00 29 1009.1
20260831014956 83 261 6.0 12.0 0.00 0.00 0.00 29 1009.1
20260831014454 84 234 6.0 11.0 0.00 0.00 0.00 29 1009.1
20260831014212 84 277 7.0 11.0 0.00 0.00 0.00 28 1009.1
20260831013449 85 245 7.0 13.0 0.00 0.00 0.00 28 1009.0
20260831012949 85 239 7.0 13.0 0.00 0.00 0.00 27 1009.0
20260831012449 86 246 6.0 12.0 0.00 0.00 0.00 28 1009.0
20260831011944 86 254 5.0 11.0 0.00 0.00 0.00 31 1009.0
20260831011443 86 236 4.0 9.0 0.00 0.00 0.00 32 1009.0
20260831010942 86 205 2.0 9.0 0.00 0.00 0.00 32 1009.0
20260831010443 86 186 1.0 5.0 0.00 0.00 0.00 36 1009.0
20260831005941 87 350 2.0 8.0 0.00 0.00 0.00 34 1009.1
20260831005443 87 351 2.0 8.0 0.00 0.00 0.00 34 1009.1
20260831005157 88 320 3.0 8.0 0.00 0.00 0.00 34 1009.1
20260831004440 87 298 3.0 8.0 0.00 0.00 0.00 34 1009.1
20260831003937 87 323 2.0 8.0 0.00 0.00 0.00 34 1009.1
20260831003438 87 317 2.0 8.0 0.00 0.00 0.00 35 1009.2
20260831002936 88 294 2.0 6.0 0.00 0.00 0.00 34 1009.2
20260831002438 88 267 2.0 6.0 0.00 0.00 0.00 35 1009.3
20260831001936 88 355 2.0 6.0 0.00 0.00 0.00 35 1009.3
20260831001437 88 277 2.0 7.0 0.00 0.00 0.00 36 1009.4
20260831000936 88 302 3.0 7.0 0.00 0.00 0.00 35 1009.3
20260831000436 89 321 3.0 8.0 0.00 0.00 0.00 35 1009.3
20260830235936 88 68 3.0 8.0 0.00 0.00 0.00 36 1009.4
20260830235432 88 321 2.0 8.0 0.00 0.00 0.00 37 1009.4
20260830234932 88 355 2.0 7.0 0.00 0.00 0.00 36 1009.5
20260830234429 88 309 2.0 8.0 0.00 0.00 0.00 36 1009.5
20260830233929 89 342 4.0 11.0 0.00 0.00 0.00 35 1009.5
20260830233655 88 355 5.0 11.0 0.00 0.00 0.00 35 1009.6
20260830232927 88 355 4.0 10.0 0.00 0.00 0.00 36 1009.6
20260830232425 88 311 4.0 10.0 0.00 0.00 0.00 36 1009.6
20260830231925 89 315 4.0 8.0 0.00 0.00 0.00 35 1009.7
20260830231644 89 313 4.0 10.0 0.00 0.00 0.00 36 1009.7
20260830231138 88 26 4.0 10.0 0.00 0.00 0.00 36 1009.7
20260830230638 88 311 3.0 9.0 0.00 0.00 0.00 36 1009.7
20260830230352 88 336 4.0 9.0 0.00 0.00 0.00 36 1009.8
20260830225417 89 313 4.0 8.0 0.00 0.00 0.00 36 1009.9
20260830224917 87 331 4.0 9.0 0.00 0.00 0.00 37 1009.9
20260830224415 88 346 4.0 9.0 0.00 0.00 0.00 37 1010.0
20260830223912 89 337 5.0 11.0 0.00 0.00 0.00 36 1010.0
20260830223411 89 43 5.0 13.0 0.00 0.00 0.00 35 1010.1
20260830222910 89 355 4.0 13.0 0.00 0.00 0.00 37 1010.2